Location: Sternwarte ZA, Rosenfeld-Brittheim
(48.2889°N, 8.6789°E)
Time: 15:42:20
(UTC+02:00)

ISS - Pass Details

Date: 26 May 2018
Orbit: 402 x 407 km, 51.6° (Epoch: 27 May)

Event Time Altitude Azimuth Distance (km) Brightness Sun altitude
Rises 22:42:45 0° 269° (W) 2,319 0.6 -11.9°
Reaches altitude 10° 22:44:53 10° 275° (W) 1,460 -0.4 -12.1°
Maximum altitude 22:48:04 48° 352° (N) 538 -2.8 -12.4°
Drops below altitude 10° 22:51:15 10° 68° (ENE) 1,460 -1.2 -12.7°
Sets 22:53:23 0° 74° (ENE) 2,320 -0.2 -12.9°
